Location: ?ernice
(48.8383°N, 14.3803°E)
Time: 06:57:30
(UTC+00:00)

Cosmos 676 Rocket - Pass Details

Date: 23 May 2024
Orbit: 752 x 782 km, 74.0° (Epoch: 15 June)

Event Time Altitude Azimuth Distance (km) Brightness Sun altitude
Exits shadow 00:42:50 27° 222° (SW) 1,462 4.9 -16.8°
Maximum altitude 00:45:41 64° 296° (WNW) 864 4.2 -16.6°
Drops below altitude 10° 00:51:00 10° 18° (NNE) 2,349 7.8 -16.2°
Sets 00:53:26 0° 22° (NNE) 3,280 9.1 -16.0°
